Location: Newport
(44.6370°N, 124.0520°W)
Time: 13:00:14
(UTC-07:00)

ISS - Pass Details

Date: 07 October 2017
Orbit: 401 x 408 km, 51.6° (Epoch: 21 October)

Event Time Altitude Azimuth Distance (km) Brightness Sun altitude
Rises 20:46:29 0° 301° (WNW) 2,329 1.3 -22.3°
Reaches altitude 10° 20:48:39 10° 309° (NW) 1,469 -0.1 -22.7°
Enters shadow 20:50:48 31° 338° (NNW) 742 -2.2 -23.0°
